K5LUO Weather Reports


time (UTC)temp
C
wind
direction
speed
KPH
gust
KPH
rain 1hr
cm
rain 24hr
cm
rain mn
cm
humidity
%
barometer
mb
20260510011559 25 130 4.8 12.9 0.00 0.00 0.00 51 1007.5
20260510010021 25 131 8.0 12.9 0.00 0.00 0.00 49 1007.1
20260510004623 26 132 8.0 12.9 0.00 0.03 0.00 48 1007.4
20260510003054 26 134 6.4 11.3 0.00 0.03 0.00 45 1007.4
20260510001519 27 136 6.4 12.9 0.00 0.03 0.00 43 1007.5
20260509234522 28 128 9.7 16.1 0.00 0.03 0.00 39 1007.6
20260509233116 28 123 6.4 20.9 0.00 0.03 0.00 40 1007.8
20260509231530 28 109 4.8 16.1 0.00 0.03 0.00 40 1007.9
20260509230123 28 157 6.4 14.5 0.00 0.03 0.00 38 1008.1
20260509224550 28 121 6.4 16.1 0.00 0.03 0.00 38 1008.3
20260509223003 28 118 9.7 22.5 0.00 0.03 0.00 37 1008.2
20260509221609 28 107 9.7 16.1 0.00 0.03 0.00 37 1008.3
20260509220028 28 107 9.7 16.1 0.00 0.03 0.00 37 1008.4
20260509214617 29 122 9.7 14.5 0.00 0.03 0.00 35 1008.6
20260509213045 28 104 3.2 14.5 0.00 0.03 0.00 36 1008.4
20260509211503 28 111 9.7 20.9 0.00 0.03 0.00 36 1008.4
20260509204528 28 107 6.4 12.9 0.00 0.03 0.00 35 1008.8
20260509203117 29 74 8.0 17.7 0.00 0.03 0.00 36 1009.0
20260509201528 30 142 6.4 12.9 0.00 0.03 0.00 35 1009.1
20260509200019 29 144 3.2 8.0 0.00 0.03 0.00 36 1009.2
20260509194625 28 146 6.4 14.5 0.00 0.03 0.00 36 1009.4
20260509193045 29 184 1.6 14.5 0.00 0.03 0.00 36 1009.6
20260509191635 28 194 1.6 11.3 0.00 0.03 0.00 38 1009.7
20260509190058 28 199 4.8 14.5 0.00 0.03 0.00 39 1009.9
20260509184523 27 87 9.7 14.5 0.00 0.03 0.00 41 1010.0
20260509183120 28 86 8.0 16.1 0.00 0.03 0.00 38 1010.1
20260509181529 27 131 6.4 11.3 0.00 0.03 0.00 38 1010.3
20260509180128 28 210 6.4 17.7 0.00 0.03 0.00 38 1010.3
20260509174602 28 173 4.8 12.9 0.00 0.03 0.00 40 1010.7
20260509173011 27 194 4.8 12.9 0.00 0.03 0.00 43 1011.0
20260509171606 26 112 1.6 11.3 0.00 0.03 0.00 48 1011.1
20260509170027 26 112 3.2 11.3 0.00 0.03 0.00 51 1011.2
20260509164610 26 135 3.2 11.3 0.00 0.03 0.00 54 1011.3
20260509163030 25 91 6.4 12.9 0.00 0.03 0.00 61 1011.0
20260509161624 25 90 4.8 12.9 0.00 0.03 0.00 65 1011.2
20260509160037 24 147 4.8 11.3 0.00 0.03 0.00 67 1011.5
20260509154633 23 150 1.6 9.7 0.00 0.03 0.00 70 1011.4
20260509153046 23 131 8.0 12.9 0.00 0.03 0.00 71 1011.5
20260509151632 22 218 4.8 9.7 0.00 0.03 0.00 74 1011.5
20260509150056 21 219 3.2 9.7 0.00 0.03 0.00 76 1011.7
20260509144517 21 190 6.4 14.5 0.00 0.03 0.00 79 1011.7
20260509143107 20 167 6.4 11.3 0.00 0.03 0.00 79 1011.4
20260509141508 20 69 3.2 8.0 0.00 0.03 0.00 80 1011.4
20260509140119 19 65 1.6 6.4 0.00 0.03 0.00 82 1011.4
20260509134554 17 65 0.0 0.0 0.00 0.03 0.00 85 1011.3
20260509133016 16 65 0.0 8.0 0.00 0.03 0.00 87 1011.2
20260509131620 15 65 0.0 3.2 0.00 0.03 0.00 89 1011.0
20260509130047 14 65 0.0 0.0 0.00 0.03 0.00 90 1010.9
20260509124502 14 65 1.6 6.4 0.00 0.03 0.00 90 1010.6
20260509123105 13 65 4.8 8.0 0.00 0.03 0.00 90 1010.5
20260509121520 13 65 0.0 0.0 0.00 0.03 0.00 89 1010.1
20260509120118 13 65 0.0 0.0 0.00 0.03 0.00 89 1009.9
20260509114533 13 65 0.0 0.0 0.00 0.03 0.00 89 1009.8
20260509113129 13 65 0.0 0.0 0.00 0.03 0.00 89 1009.5
20260509111542 13 65 0.0 0.0 0.00 0.03 0.00 89 1009.6
20260509110133 13 65 0.0 0.0 0.00 0.03 0.00 89 1009.5
20260509104558 14 65 0.0 3.2 0.00 0.03 0.00 88 1009.8
20260509103021 14 65 3.2 8.0 0.00 0.03 0.00 87 1009.8
20260509101621 14 65 3.2 8.0 0.00 0.03 0.00 86 1009.8
20260509100040 15 65 3.2 8.0 0.00 0.03 0.00 85 1010.0
20260509094631 15 65 3.2 9.7 0.00 0.03 0.00 84 1010.0
20260509093050 16 66 1.6 6.4 0.00 0.03 0.00 85 1009.8
20260509091516 16 65 0.0 8.0 0.00 0.03 0.00 85 1009.7
20260509090120 16 65 3.2 8.0 0.00 0.03 0.00 85 1009.6
20260509084535 16 63 3.2 8.0 0.00 0.03 0.00 85 1009.8
20260509083121 16 62 3.2 9.7 0.00 0.03 0.00 84 1010.0
20260509081540 16 59 1.6 6.4 0.00 0.03 0.00 84 1010.0
20260509080013 16 59 0.0 0.0 0.00 0.03 0.00 83 1010.1
20260509074609 16 59 0.0 3.2 0.00 0.03 0.00 83 1010.1
20260509073024 16 59 0.0 0.0 0.00 0.03 0.00 82 1010.1
20260509071518 16 59 0.0 3.2 0.00 0.03 0.00 82 1010.4
20260509070116 16 59 0.0 0.0 0.00 0.03 0.00 82 1010.4
20260509064536 17 59 0.0 0.0 0.00 0.03 0.00 82 1010.8
20260509063005 17 59 0.0 1.6 0.00 0.03 0.00 82 1010.8
20260509061601 17 59 0.0 0.0 0.00 0.03 0.00 82 1010.9
20260509060023 17 59 0.0 6.4 0.00 0.03 0.00 83 1010.9
20260509054620 17 59 3.2 8.0 0.00 0.03 0.00 83 1011.1
20260509053107 16 59 6.4 12.9 0.00 0.03 0.00 84 1010.8
20260509051633 17 44 8.0 14.5 0.00 0.03 0.00 83 1010.6
20260509050049 17 355 4.8 11.3 0.00 0.03 0.00 81 1010.2
20260509044542 17 355 3.2 4.8 0.00 0.03 0.03 80 1010.3
20260509043006 17 355 4.8 9.7 0.00 0.03 0.03 81 1010.2
20260509041605 17 355 1.6 8.0 0.00 0.03 0.03 81 1010.3
20260509040027 18 355 1.6 6.4 0.00 0.03 0.03 81 1010.4
20260509034621 18 355 0.0 3.2 0.00 0.03 0.03 80 1010.2
20260509033032 18 355 1.6 8.0 0.00 0.03 0.03 80 1010.1
20260509031625 18 355 6.4 9.7 0.00 0.03 0.03 80 1009.8
20260509030052 18 355 0.0 0.0 0.00 0.03 0.03 79 1009.9
20260509024522 18 355 3.2 12.9 0.00 0.03 0.03 79 1009.6
20260509023007 18 355 11.3 19.3 0.00 0.03 0.03 78 1009.3
20260509021606 18 211 8.0 17.7 0.00 0.03 0.03 77 1008.6
20260509020027 19 202 4.8 12.9 0.00 0.03 0.03 77 1008.2
20260509014620 19 202 8.0 12.9 0.00 0.03 0.03 77 1008.1
20260509013052 19 199 9.7 20.9 0.00 0.03 0.03 77 1007.5